Time,TemperatureF,DewpointF,PressureIn,WindDirection,WindDirectionDegrees,WindSpeedMPH,WindSpeedGustMPH,Humidity,HourlyPrecipIn,Conditions,Clouds,dailyrainin,SoftwareType,DateUTC
2013-06-18 00:06:00,53.6,50.1,29.81,NE,45,0.0,-999.0,88,-99.99,,,0.00,Acu-Link.com,2013-06-18 07:06:00,
2013-06-18 00:21:00,53.6,49.8,29.81,NE,45,0.0,-999.0,87,-99.99,,,0.00,Acu-Link.com,2013-06-18 07:21:00,
2013-06-18 00:36:00,51.8,48.4,29.82,NE,45,0.0,-999.0,88,-99.99,,,0.00,Acu-Link.com,2013-06-18 07:36:00,
2013-06-18 00:51:00,51.8,48.1,29.81,NE,45,0.0,-999.0,87,-99.99,,,0.00,Acu-Link.com,2013-06-18 07:51:00,
2013-06-18 01:07:00,51.8,48.4,29.81,West,270,0.0,-999.0,88,-99.99,,,0.00,Acu-Link.com,2013-06-18 08:07:00,
2013-06-18 01:22:00,51.8,48.7,29.81,SW,225,0.0,-999.0,89,-99.99,,,0.00,Acu-Link.com,2013-06-18 08:22:00,
2013-06-18 01:38:00,51.8,48.7,29.81,NE,45,0.0,-999.0,89,-99.99,,,0.00,Acu-Link.com,2013-06-18 08:38:00,
2013-06-18 01:53:00,50.0,47.2,29.81,WSW,247,0.0,-999.0,90,-99.99,,,0.00,Acu-Link.com,2013-06-18 08:53:00,
2013-06-18 02:08:00,50.0,46.6,29.81,ENE,67,0.0,-999.0,88,-99.99,,,0.00,Acu-Link.com,2013-06-18 09:08:00,
2013-06-18 02:23:00,50.0,47.2,29.81,East,90,0.0,-999.0,90,-99.99,,,0.00,Acu-Link.com,2013-06-18 09:23:00,
2013-06-18 02:38:00,48.2,45.4,29.81,ENE,67,0.0,-999.0,90,-99.99,,,0.00,Acu-Link.com,2013-06-18 09:38:00,
2013-06-18 02:53:00,48.2,45.7,29.82,ESE,112,0.0,-999.0,91,-99.99,,,0.00,Acu-Link.com,2013-06-18 09:53:00,
2013-06-18 03:08:00,48.2,45.4,29.81,ENE,67,0.0,-999.0,90,-99.99,,,0.00,Acu-Link.com,2013-06-18 10:08:00,
2013-06-18 03:24:00,48.2,45.7,29.81,ENE,67,0.0,-999.0,91,-99.99,,,0.00,Acu-Link.com,2013-06-18 10:24:00,
2013-06-18 03:39:00,46.4,43.6,29.81,ESE,112,0.0,-999.0,90,-99.99,,,0.00,Acu-Link.com,2013-06-18 10:39:00,
2013-06-18 03:54:00,46.4,43.9,29.81,ESE,112,0.0,-999.0,91,-99.99,,,0.00,Acu-Link.com,2013-06-18 10:54:00,
2013-06-18 04:10:00,46.4,43.9,29.81,East,90,0.0,-999.0,91,-99.99,,,0.00,Acu-Link.com,2013-06-18 11:10:00,
2013-06-18 04:25:00,46.4,43.6,29.81,South,180,0.0,-999.0,90,-99.99,,,0.00,Acu-Link.com,2013-06-18 11:25:00,
2013-06-18 04:40:00,46.4,43.9,29.80,East,90,0.0,-999.0,91,-99.99,,,0.00,Acu-Link.com,2013-06-18 11:40:00,
2013-06-18 04:55:00,44.6,44.1,29.81,East,90,0.0,-999.0,98,-99.99,,,0.00,Acu-Link.com,2013-06-18 11:55:00,
2013-06-18 05:10:00,44.6,44.1,29.81,East,90,0.0,-999.0,98,-99.99,,,0.00,Acu-Link.com,2013-06-18 12:10:00,
2013-06-18 05:25:00,44.6,44.1,29.81,East,90,0.0,-999.0,98,-99.99,,,0.00,Acu-Link.com,2013-06-18 12:25:00,
2013-06-18 05:40:00,44.6,43.8,29.82,SSE,157,0.0,-999.0,97,-99.99,,,0.00,Acu-Link.com,2013-06-18 12:40:00,
2013-06-18 05:56:00,44.6,44.1,29.82,East,90,0.0,-999.0,98,-99.99,,,0.00,Acu-Link.com,2013-06-18 12:56:00,
2013-06-18 06:11:00,44.6,44.1,29.82,East,90,0.0,-999.0,98,-99.99,,,0.00,Acu-Link.com,2013-06-18 13:11:00,
2013-06-18 06:26:00,46.4,45.9,29.82,SSW,202,0.0,-999.0,98,-99.99,,,0.00,Acu-Link.com,2013-06-18 13:26:00,
2013-06-18 06:41:00,46.4,45.9,29.83,West,270,0.0,-999.0,98,-99.99,,,0.00,Acu-Link.com,2013-06-18 13:41:00,
2013-06-18 06:56:00,46.4,45.9,29.83,East,90,0.0,-999.0,98,-99.99,,,0.00,Acu-Link.com,2013-06-18 13:56:00,
2013-06-18 07:12:00,46.4,45.9,29.83,SSW,202,0.0,-999.0,98,-99.99,,,0.00,Acu-Link.com,2013-06-18 14:12:00,
2013-06-18 07:27:00,48.2,47.7,29.82,West,270,1.6,-999.0,98,-99.99,,,0.00,Acu-Link.com,2013-06-18 14:27:00,
2013-06-18 07:42:00,48.2,47.7,29.81,East,90,0.0,-999.0,98,-99.99,,,0.00,Acu-Link.com,2013-06-18 14:42:00,
2013-06-18 07:57:00,50.0,47.5,29.82,NNE,22,0.0,-999.0,91,-99.99,,,0.00,Acu-Link.com,2013-06-18 14:57:00,
2013-06-18 08:12:00,50.0,49.5,29.82,SE,135,0.0,-999.0,98,-99.99,,,0.00,Acu-Link.com,2013-06-18 15:12:00,
2013-06-18 08:27:00,50.0,49.5,29.83,NE,45,2.0,-999.0,98,-99.99,,,0.02,Acu-Link.com,2013-06-18 15:27:00,
2013-06-18 08:43:00,50.0,49.5,29.82,South,180,0.0,-999.0,98,-99.99,,,0.05,Acu-Link.com,2013-06-18 15:43:00,
2013-06-18 08:58:00,51.8,51.3,29.81,South,180,0.0,-999.0,98,-99.99,,,0.07,Acu-Link.com,2013-06-18 15:58:00,
2013-06-18 09:13:00,51.8,51.3,29.82,SW,225,0.0,-999.0,98,-99.99,,,0.07,Acu-Link.com,2013-06-18 16:13:00,
2013-06-18 09:28:00,51.8,51.3,29.82,ESE,112,0.0,-999.0,98,-99.99,,,0.07,Acu-Link.com,2013-06-18 16:28:00,
2013-06-18 09:43:00,51.8,49.3,29.82,SSE,157,0.0,-999.0,91,-99.99,,,0.07,Acu-Link.com,2013-06-18 16:43:00,
2013-06-18 09:59:00,53.6,53.0,29.82,South,180,0.0,-999.0,98,-99.99,,,0.07,Acu-Link.com,2013-06-18 16:59:00,
2013-06-18 10:14:00,53.6,49.5,29.82,SSE,157,0.0,-999.0,86,-99.99,,,0.07,Acu-Link.com,2013-06-18 17:14:00,
2013-06-18 10:29:00,53.6,49.8,29.82,South,180,1.1,-999.0,87,-99.99,,,0.07,Acu-Link.com,2013-06-18 17:29:00,
2013-06-18 10:44:00,53.6,49.8,29.82,South,180,0.0,-999.0,87,-99.99,,,0.07,Acu-Link.com,2013-06-18 17:44:00,
2013-06-18 10:59:00,55.4,48.3,29.81,SW,225,1.6,-999.0,77,-99.99,,,0.07,Acu-Link.com,2013-06-18 17:59:00,
2013-06-18 11:14:00,55.4,49.3,29.81,SE,135,0.0,-999.0,80,-99.99,,,0.07,Acu-Link.com,2013-06-18 18:14:00,
2013-06-18 11:30:00,59.0,49.6,29.81,NE,45,0.0,-999.0,71,-99.99,,,0.07,Acu-Link.com,2013-06-18 18:30:00,
2013-06-18 11:45:00,59.0,50.7,29.81,ESE,112,0.0,-999.0,74,-99.99,,,0.07,Acu-Link.com,2013-06-18 18:45:00,
2013-06-18 12:00:00,59.0,48.1,29.81,ENE,67,2.0,-999.0,67,-99.99,,,0.07,Acu-Link.com,2013-06-18 19:00:00,
2013-06-18 12:15:00,62.6,49.8,29.81,South,180,0.0,-999.0,63,-99.99,,,0.07,Acu-Link.com,2013-06-18 19:15:00,
2013-06-18 12:31:00,62.6,46.7,29.81,NW,315,1.6,-999.0,56,-99.99,,,0.07,Acu-Link.com,2013-06-18 19:31:00,
2013-06-18 12:46:00,64.4,48.8,29.80,SSE,157,2.0,-999.0,57,-99.99,,,0.07,Acu-Link.com,2013-06-18 19:46:00,
2013-06-18 13:01:00,62.6,46.2,29.80,West,270,2.7,-999.0,55,-99.99,,,0.07,Acu-Link.com,2013-06-18 20:01:00,
2013-06-18 13:16:00,68.0,49.7,29.80,ESE,112,2.0,-999.0,52,-99.99,,,0.07,Acu-Link.com,2013-06-18 20:16:00,
2013-06-18 13:32:00,64.4,47.4,29.79,NE,45,2.0,-999.0,54,-99.99,,,0.07,Acu-Link.com,2013-06-18 20:32:00,
2013-06-18 13:47:00,64.4,45.4,29.78,ENE,67,0.0,-999.0,50,-99.99,,,0.07,Acu-Link.com,2013-06-18 20:47:00,
2013-06-18 14:02:00,68.0,49.7,29.78,ENE,67,1.6,-999.0,52,-99.99,,,0.07,Acu-Link.com,2013-06-18 21:02:00,
2013-06-18 14:17:00,68.0,48.1,29.77,NNE,22,1.6,-999.0,49,-99.99,,,0.07,Acu-Link.com,2013-06-18 21:17:00,
2013-06-18 14:32:00,68.0,45.9,29.77,SW,225,1.6,-999.0,45,-99.99,,,0.07,Acu-Link.com,2013-06-18 21:32:00,
2013-06-18 14:47:00,68.0,47.0,29.77,NE,45,0.0,-999.0,47,-99.99,,,0.07,Acu-Link.com,2013-06-18 21:47:00,
2013-06-18 15:03:00,68.0,48.1,29.77,SSE,157,1.6,-999.0,49,-99.99,,,0.07,Acu-Link.com,2013-06-18 22:03:00,
2013-06-18 15:18:00,69.8,47.5,29.75,SSE,157,3.1,-999.0,45,-99.99,,,0.07,Acu-Link.com,2013-06-18 22:18:00,
2013-06-18 15:33:00,69.8,46.9,29.76,West,270,2.0,-999.0,44,-99.99,,,0.07,Acu-Link.com,2013-06-18 22:33:00,
2013-06-18 15:48:00,68.0,47.0,29.76,SW,225,0.0,-999.0,47,-99.99,,,0.07,Acu-Link.com,2013-06-18 22:48:00,
2013-06-18 16:03:00,68.0,46.4,29.75,South,180,0.0,-999.0,46,-99.99,,,0.07,Acu-Link.com,2013-06-18 23:03:00,
2013-06-18 16:18:00,71.6,47.9,29.75,ENE,67,2.0,-999.0,43,-99.99,,,0.07,Acu-Link.com,2013-06-18 23:18:00,
2013-06-18 16:34:00,73.4,46.9,29.75,ESE,112,2.7,-999.0,39,-99.99,,,0.07,Acu-Link.com,2013-06-18 23:34:00,
2013-06-18 16:49:00,62.6,47.6,29.75,NNE,22,1.6,-999.0,58,-99.99,,,0.07,Acu-Link.com,2013-06-18 23:49:00,
2013-06-18 17:04:00,68.0,52.2,29.75,East,90,2.0,-999.0,57,-99.99,,,0.07,Acu-Link.com,2013-06-19 00:04:00,
2013-06-18 17:19:00,68.0,51.2,29.75,NNE,22,1.6,-999.0,55,-99.99,,,0.07,Acu-Link.com,2013-06-19 00:19:00,
2013-06-18 17:34:00,68.0,53.1,29.75,South,180,0.0,-999.0,59,-99.99,,,0.07,Acu-Link.com,2013-06-19 00:34:00,
2013-06-18 17:49:00,64.4,51.1,29.75,SE,135,0.0,-999.0,62,-99.99,,,0.07,Acu-Link.com,2013-06-19 00:49:00,
2013-06-18 18:04:00,64.4,53.2,29.75,NNW,337,0.0,-999.0,67,-99.99,,,0.07,Acu-Link.com,2013-06-19 01:04:00,
2013-06-18 18:19:00,64.4,52.0,29.74,WSW,247,3.6,-999.0,64,-99.99,,,0.07,Acu-Link.com,2013-06-19 01:19:00,
2013-06-18 18:35:00,66.2,51.0,29.74,ESE,112,0.0,-999.0,58,-99.99,,,0.07,Acu-Link.com,2013-06-19 01:35:00,
2013-06-18 18:50:00,66.2,48.6,29.74,SE,135,2.0,-999.0,53,-99.99,,,0.07,Acu-Link.com,2013-06-19 01:50:00,
2013-06-18 19:05:00,64.4,48.4,29.74,ESE,112,1.6,-999.0,56,-99.99,,,0.07,Acu-Link.com,2013-06-19 02:05:00,
2013-06-18 19:20:00,62.6,52.7,29.74,ESE,112,2.0,-999.0,70,-99.99,,,0.07,Acu-Link.com,2013-06-19 02:20:00,
2013-06-18 19:35:00,60.8,52.8,29.74,SW,225,0.0,-999.0,75,-99.99,,,0.07,Acu-Link.com,2013-06-19 02:35:00,
2013-06-18 19:50:00,60.8,53.9,29.74,East,90,0.0,-999.0,78,-99.99,,,0.07,Acu-Link.com,2013-06-19 02:50:00,
2013-06-18 20:06:00,59.0,52.8,29.74,South,180,0.0,-999.0,80,-99.99,,,0.07,Acu-Link.com,2013-06-19 03:06:00,
2013-06-18 20:21:00,59.0,53.8,29.74,South,180,0.0,-999.0,83,-99.99,,,0.07,Acu-Link.com,2013-06-19 03:21:00,
2013-06-18 20:36:00,59.0,53.8,29.75,ESE,112,0.0,-999.0,83,-99.99,,,0.07,Acu-Link.com,2013-06-19 03:36:00,
2013-06-18 20:51:00,59.0,53.8,29.74,ENE,67,0.0,-999.0,83,-99.99,,,0.07,Acu-Link.com,2013-06-19 03:51:00,
2013-06-18 21:06:00,57.2,52.4,29.74,ENE,67,0.0,-999.0,84,-99.99,,,0.07,Acu-Link.com,2013-06-19 04:06:00,
2013-06-18 21:21:00,55.4,51.3,29.74,ENE,67,0.0,-999.0,86,-99.99,,,0.07,Acu-Link.com,2013-06-19 04:21:00,
2013-06-18 21:36:00,55.4,51.6,29.74,NE,45,0.0,-999.0,87,-99.99,,,0.07,Acu-Link.com,2013-06-19 04:36:00,
2013-06-18 21:51:00,55.4,51.0,29.75,NNW,337,0.0,-999.0,85,-99.99,,,0.07,Acu-Link.com,2013-06-19 04:51:00,
2013-06-18 22:06:00,55.4,51.9,29.75,NW,315,1.1,-999.0,88,-99.99,,,0.07,Acu-Link.com,2013-06-19 05:06:00,
2013-06-18 22:21:00,55.4,51.6,29.75,ENE,67,0.0,-999.0,87,-99.99,,,0.07,Acu-Link.com,2013-06-19 05:21:00,
2013-06-18 22:36:00,55.4,51.3,29.75,South,180,0.0,-999.0,86,-99.99,,,0.07,Acu-Link.com,2013-06-19 05:36:00,
2013-06-18 22:51:00,55.4,51.3,29.75,NNW,337,0.0,-999.0,86,-99.99,,,0.07,Acu-Link.com,2013-06-19 05:51:00,
2013-06-18 23:06:00,55.4,51.6,29.76,NNW,337,0.0,-999.0,87,-99.99,,,0.08,Acu-Link.com,2013-06-19 06:06:00,
2013-06-18 23:22:00,53.6,50.4,29.76,NE,45,0.0,-999.0,89,-99.99,,,0.09,Acu-Link.com,2013-06-19 06:22:00,
2013-06-18 23:37:00,53.6,50.7,29.76,NE,45,0.0,-999.0,90,-99.99,,,0.11,Acu-Link.com,2013-06-19 06:37:00,
2013-06-18 23:52:00,53.6,50.7,29.76,SE,135,1.1,-999.0,90,-99.99,,,0.11,Acu-Link.com,2013-06-19 06:52:00,